{"data":{"norad_id":64766,"intl_designator":"2025-147M","name":"STARLINK-34645","alt_names":[],"object_type":"PAYLOAD","status":"ACTIVE","operator":null,"country":"US","launch_date":"2025-07-08","launch_site_code":"AFETR","launch_vehicle":null,"mission":null,"orbit_class":"UNKNOWN","rcs_meters":null,"size_class":null,"mass_kg":null,"dimensions":null,"purposes":["comms"],"wikipedia_slug":null,"has_3d_model":false,"image_url":null,"decayed_at":null,"tle_current":{"epoch":"2026-09-20T03:56:57.424128Z","epoch_age_seconds":156961,"freshness":"FRESH","line1":"1 64766U 25147M   26263.16455352  .00022157  00000+0  66471-3 0  9991","line2":"2 64766  53.1614  58.9464 0001516  81.5673 278.5501 15.34412450 68539","mean_motion":15.3441245,"eccentricity":0.0001516,"inclination_deg":53.1614,"raan_deg":58.9464,"arg_perigee_deg":81.5673,"mean_anomaly_deg":278.5501,"bstar":0.00066471,"rev_number":6853,"period_min":93.846996614242,"perigee_km":461.62917066295,"apogee_km":463.70330220423,"semimajor_km":6840.8032364336,"source":"CELESTRAK","updated_at":"2026-09-21T09:00:35.438381Z"}}}